owner,sensor,date,latitude,longitude,air_pressure(mBar),qcFlag 
TABS,ioos:station:wmo:42046:1,2011-10-01T00:00:00Z,27.8903,-94.0367,1014.27,11111222 
TABS,ioos:station:wmo:42046:1,2011-10-01T00:30:00Z,27.8903,-94.0367,1014.46,11111222 
TABS,ioos:station:wmo:42046:1,2011-10-01T01:00:00Z,27.8903,-94.0367,1014.72,11111222 
TABS,ioos:station:wmo:42046:1,2011-10-01T01:30:00Z,27.8903,-94.0367,1015.01,11111222 
TABS,ioos:station:wmo:42046:1,2011-10-01T02:00:00Z,27.8903,-94.0367,1015.43,11111222 
TABS,ioos:station:wmo:42046:1,2011-10-01T02:30:00Z,27.8903,-94.0367,1015.75,11111222 
TABS,ioos:station:wmo:42046:1,2011-10-01T03:00:00Z,27.8903,-94.0367,1016.19,11111222 
TABS,ioos:station:wmo:42046:1,2011-10-01T03:30:00Z,27.8903,-94.0367,1016.28,11111222 
TABS,ioos:station:wmo:42046:1,2011-10-01T04:00:00Z,27.8903,-94.0367,1016.29,11111222 
TABS,ioos:station:wmo:42046:1,2011-10-01T04:30:00Z,27.8903,-94.0367,1016.32,11111222 
TABS,ioos:station:wmo:42046:1,2011-10-01T05:00:00Z,27.8903,-94.0367,1016.14,11111222 
TABS,ioos:station:wmo:42046:1,2011-10-01T05:30:00Z,27.8903,-94.0367,1016.25,11111222 
TABS,ioos:station:wmo:42046:1,2011-10-01T06:00:00Z,27.8903,-94.0367,1016.15,11111222 
TABS,ioos:station:wmo:42046:1,2011-10-01T06:30:00Z,27.8903,-94.0367,1016.21,11111222 
TABS,ioos:station:wmo:42046:1,2011-10-01T07:00:00Z,27.8903,-94.0367,1016.21,11111222 
TABS,ioos:station:wmo:42046:1,2011-10-01T07:30:00Z,27.8903,-94.0367,1016.11,11111222 
TABS,ioos:station:wmo:42046:1,2011-10-01T08:00:00Z,27.8903,-94.0367,1016.1,11111222 
TABS,ioos:station:wmo:42046:1,2011-10-01T08:30:00Z,27.8903,-94.0367,1015.96,11111222 
TABS,ioos:station:wmo:42046:1,2011-10-01T09:00:00Z,27.8903,-94.0367,1016.04,11111222 
TABS,ioos:station:wmo:42046:1,2011-10-01T09:30:00Z,27.8903,-94.0367,1016.16,11111222 
TABS,ioos:station:wmo:42046:1,2011-10-01T10:00:00Z,27.8903,-94.0367,1016.18,11111222 
TABS,ioos:station:wmo:42046:1,2011-10-01T10:30:00Z,27.8903,-94.0367,1016.44,11111222 
TABS,ioos:station:wmo:42046:1,2011-10-01T11:00:00Z,27.8903,-94.0367,1016.84,11111222 
TABS,ioos:station:wmo:42046:1,2011-10-01T11:30:00Z,27.8903,-94.0367,1017.12,11111222 
TABS,ioos:station:wmo:42046:1,2011-10-01T12:00:00Z,27.8903,-94.0367,1017.48,11111222 
TABS,ioos:station:wmo:42046:1,2011-10-01T12:30:00Z,27.8903,-94.0367,1017.73,11111222 
TABS,ioos:station:wmo:42046:1,2011-10-01T13:00:00Z,27.8903,-94.0367,1018.13,11111222 
TABS,ioos:station:wmo:42046:1,2011-10-01T13:30:00Z,27.8903,-94.0367,1018.65,11111222 
TABS,ioos:station:wmo:42046:1,2011-10-01T14:00:00Z,27.8903,-94.0367,1019.21,11111222 
TABS,ioos:station:wmo:42046:1,2011-10-01T14:30:00Z,27.8903,-94.0367,1019.49,11111222 
TABS,ioos:station:wmo:42046:1,2011-10-01T15:00:00Z,27.8903,-94.0367,1019.89,11111222 
TABS,ioos:station:wmo:42046:1,2011-10-01T15:30:00Z,27.8903,-94.0367,1020.03,11111222 
TABS,ioos:station:wmo:42046:1,2011-10-01T16:00:00Z,27.8903,-94.0367,1020.13,11111222 
TABS,ioos:station:wmo:42046:1,2011-10-01T16:30:00Z,27.8903,-94.0367,1020.15,11111222 
TABS,ioos:station:wmo:42046:1,2011-10-01T17:00:00Z,27.8903,-94.0367,1020.24,11111222 
TABS,ioos:station:wmo:42046:1,2011-10-01T17:30:00Z,27.8903,-94.0367,1020.09,11111222 
TABS,ioos:station:wmo:42046:1,2011-10-01T18:00:00Z,27.8903,-94.0367,1019.91,11111222 
TABS,ioos:station:wmo:42046:1,2011-10-01T18:30:00Z,27.8903,-94.0367,1019.63,11111222 
TABS,ioos:station:wmo:42046:1,2011-10-01T19:00:00Z,27.8903,-94.0367,1019.21,11111222 
TABS,ioos:station:wmo:42046:1,2011-10-01T19:30:00Z,27.8903,-94.0367,1019.08,11111222 
TABS,ioos:station:wmo:42046:1,2011-10-01T20:00:00Z,27.8903,-94.0367,1018.89,11111222 
TABS,ioos:station:wmo:42046:1,2011-10-01T20:30:00Z,27.8903,-94.0367,1019.05,11111222 
TABS,ioos:station:wmo:42046:1,2011-10-01T21:00:00Z,27.8903,-94.0367,1019.02,11111222 
TABS,ioos:station:wmo:42046:1,2011-10-01T21:30:00Z,27.8903,-94.0367,1018.82,11111222 
TABS,ioos:station:wmo:42046:1,2011-10-01T22:00:00Z,27.8903,-94.0367,1018.73,11111222 
TABS,ioos:station:wmo:42046:1,2011-10-01T22:30:00Z,27.8903,-94.0367,1018.64,11111222 
TABS,ioos:station:wmo:42046:1,2011-10-01T23:00:00Z,27.8903,-94.0367,1018.72,11111222 
TABS,ioos:station:wmo:42046:1,2011-10-01T23:30:00Z,27.8903,-94.0367,1018.71,11111222 
TABS,ioos:station:wmo:42046:1,2011-10-02T00:00:00Z,27.8903,-94.0367,1018.78,11111222 
TABS,ioos:station:wmo:42046:1,2011-10-02T00:30:00Z,27.8903,-94.0367,1018.86,11111222 
TABS,ioos:station:wmo:42046:1,2011-10-02T01:00:00Z,27.8903,-94.0367,1019.03,11111222 
TABS,ioos:station:wmo:42046:1,2011-10-02T01:30:00Z,27.8903,-94.0367,1019.22,11111222 
TABS,ioos:station:wmo:42046:1,2011-10-02T02:00:00Z,27.8903,-94.0367,1019.51,11111222 
TABS,ioos:station:wmo:42046:1,2011-10-02T02:30:00Z,27.8903,-94.0367,1019.68,11111222 
TABS,ioos:station:wmo:42046:1,2011-10-02T03:00:00Z,27.8903,-94.0367,1019.99,11111222 
TABS,ioos:station:wmo:42046:1,2011-10-02T03:30:00Z,27.8903,-94.0367,1019.93,11111222 
TABS,ioos:station:wmo:42046:1,2011-10-02T04:00:00Z,27.8903,-94.0367,1019.95,11111222 
TABS,ioos:station:wmo:42046:1,2011-10-02T04:30:00Z,27.8903,-94.0367,1019.96,11111222 
TABS,ioos:station:wmo:42046:1,2011-10-02T05:00:00Z,27.8903,-94.0367,1019.86,11111222 
TABS,ioos:station:wmo:42046:1,2011-10-02T05:30:00Z,27.8903,-94.0367,1019.66,11111222 
TABS,ioos:station:wmo:42046:1,2011-10-02T06:00:00Z,27.8903,-94.0367,1019.73,11111222 
TABS,ioos:station:wmo:42046:1,2011-10-02T06:30:00Z,27.8903,-94.0367,1019.69,11111222 
TABS,ioos:station:wmo:42046:1,2011-10-02T07:00:00Z,27.8903,-94.0367,1019.65,11111222 
TABS,ioos:station:wmo:42046:1,2011-10-02T07:30:00Z,27.8903,-94.0367,1019.52,11111222 
TABS,ioos:station:wmo:42046:1,2011-10-02T08:00:00Z,27.8903,-94.0367,1019.4,11111222 
TABS,ioos:station:wmo:42046:1,2011-10-02T08:30:00Z,27.8903,-94.0367,1019.05,11111222 
TABS,ioos:station:wmo:42046:1,2011-10-02T09:00:00Z,27.8903,-94.0367,1019.08,11111222 
TABS,ioos:station:wmo:42046:1,2011-10-02T09:30:00Z,27.8903,-94.0367,1019.08,11111222 
TABS,ioos:station:wmo:42046:1,2011-10-02T10:00:00Z,27.8903,-94.0367,1019.18,11111222 
TABS,ioos:station:wmo:42046:1,2011-10-02T10:30:00Z,27.8903,-94.0367,1019.46,11111222 
TABS,ioos:station:wmo:42046:1,2011-10-02T11:00:00Z,27.8903,-94.0367,1019.67,11111222 
TABS,ioos:station:wmo:42046:1,2011-10-02T11:30:00Z,27.8903,-94.0367,1020.07,11111222 
TABS,ioos:station:wmo:42046:1,2011-10-02T12:00:00Z,27.8903,-94.0367,1020.3,11111222 
TABS,ioos:station:wmo:42046:1,2011-10-02T12:30:00Z,27.8903,-94.0367,1020.44,11111222 
TABS,ioos:station:wmo:42046:1,2011-10-02T13:00:00Z,27.8903,-94.0367,1020.88,11111222 
TABS,ioos:station:wmo:42046:1,2011-10-02T13:30:00Z,27.8903,-94.0367,1021.18,11111222 
TABS,ioos:station:wmo:42046:1,2011-10-02T14:00:00Z,27.8903,-94.0367,1021.65,11111222 
TABS,ioos:station:wmo:42046:1,2011-10-02T14:30:00Z,27.8903,-94.0367,1021.96,11111222 
TABS,ioos:station:wmo:42046:1,2011-10-02T15:00:00Z,27.8903,-94.0367,1022.1,11111222 
TABS,ioos:station:wmo:42046:1,2011-10-02T15:30:00Z,27.8903,-94.0367,1022.14,11111222 
TABS,ioos:station:wmo:42046:1,2011-10-02T16:00:00Z,27.8903,-94.0367,1022.3,11111222 
TABS,ioos:station:wmo:42046:1,2011-10-02T16:30:00Z,27.8903,-94.0367,1022.41,11111222 
TABS,ioos:station:wmo:42046:1,2011-10-02T17:00:00Z,27.8903,-94.0367,1022.18,11111222 
TABS,ioos:station:wmo:42046:1,2011-10-02T17:30:00Z,27.8903,-94.0367,1021.86,11111222 
TABS,ioos:station:wmo:42046:1,2011-10-02T18:00:00Z,27.8903,-94.0367,1021.74,11111222 
TABS,ioos:station:wmo:42046:1,2011-10-02T18:30:00Z,27.8903,-94.0367,1021.16,11111222 
TABS,ioos:station:wmo:42046:1,2011-10-02T19:00:00Z,27.8903,-94.0367,1021.01,11111222 
TABS,ioos:station:wmo:42046:1,2011-10-02T19:30:00Z,27.8903,-94.0367,1020.69,11111222 
TABS,ioos:station:wmo:42046:1,2011-10-02T20:00:00Z,27.8903,-94.0367,1020.6,11111222 
TABS,ioos:station:wmo:42046:1,2011-10-02T20:30:00Z,27.8903,-94.0367,1020.3,11111222 
TABS,ioos:station:wmo:42046:1,2011-10-02T21:00:00Z,27.8903,-94.0367,1020.23,11111222 
TABS,ioos:station:wmo:42046:1,2011-10-02T21:30:00Z,27.8903,-94.0367,1020.23,11111222 
TABS,ioos:station:wmo:42046:1,2011-10-02T22:00:00Z,27.8903,-94.0367,1020.36,11111222 
TABS,ioos:station:wmo:42046:1,2011-10-02T22:30:00Z,27.8903,-94.0367,1020.32,11111222 
TABS,ioos:station:wmo:42046:1,2011-10-02T23:00:00Z,27.8903,-94.0367,1020.34,11111222 
TABS,ioos:station:wmo:42046:1,2011-10-02T23:30:00Z,27.8903,-94.0367,1020.21,11111222 
TABS,ioos:station:wmo:42046:1,2011-10-03T00:00:00Z,27.8903,-94.0367,1020.37,11111222 
TABS,ioos:station:wmo:42046:1,2011-10-03T00:30:00Z,27.8903,-94.0367,1020.37,11111222 
TABS,ioos:station:wmo:42046:1,2011-10-03T01:00:00Z,27.8903,-94.0367,1020.59,11111222 
TABS,ioos:station:wmo:42046:1,2011-10-03T01:30:00Z,27.8903,-94.0367,1020.65,11111222 
TABS,ioos:station:wmo:42046:1,2011-10-03T02:00:00Z,27.8903,-94.0367,1021.03,11111222 
TABS,ioos:station:wmo:42046:1,2011-10-03T02:30:00Z,27.8903,-94.0367,1021.08,11111222 
TABS,ioos:station:wmo:42046:1,2011-10-03T03:00:00Z,27.8903,-94.0367,1021.12,11111222 
TABS,ioos:station:wmo:42046:1,2011-10-03T03:30:00Z,27.8903,-94.0367,1021.17,11111222 
TABS,ioos:station:wmo:42046:1,2011-10-03T04:00:00Z,27.8903,-94.0367,1021.23,11111222 
TABS,ioos:station:wmo:42046:1,2011-10-03T04:30:00Z,27.8903,-94.0367,1021.08,11111222 
TABS,ioos:station:wmo:42046:1,2011-10-03T05:00:00Z,27.8903,-94.0367,1020.98,11111222 
TABS,ioos:station:wmo:42046:1,2011-10-03T05:30:00Z,27.8903,-94.0367,1020.8,11111222 
TABS,ioos:station:wmo:42046:1,2011-10-03T06:00:00Z,27.8903,-94.0367,1020.82,11111222 
TABS,ioos:station:wmo:42046:1,2011-10-03T06:30:00Z,27.8903,-94.0367,1020.75,11111222 
TABS,ioos:station:wmo:42046:1,2011-10-03T07:00:00Z,27.8903,-94.0367,1020.76,11111222 
TABS,ioos:station:wmo:42046:1,2011-10-03T07:30:00Z,27.8903,-94.0367,1020.52,11111222 
TABS,ioos:station:wmo:42046:1,2011-10-03T08:00:00Z,27.8903,-94.0367,1020.4,11111222 
TABS,ioos:station:wmo:42046:1,2011-10-03T08:30:00Z,27.8903,-94.0367,1020.33,11111222 
TABS,ioos:station:wmo:42046:1,2011-10-03T09:00:00Z,27.8903,-94.0367,1020.39,11111222 
TABS,ioos:station:wmo:42046:1,2011-10-03T09:30:00Z,27.8903,-94.0367,1020.18,11111222 
TABS,ioos:station:wmo:42046:1,2011-10-03T10:00:00Z,27.8903,-94.0367,1020.49,11111222 
TABS,ioos:station:wmo:42046:1,2011-10-03T10:30:00Z,27.8903,-94.0367,1020.67,11111222 
TABS,ioos:station:wmo:42046:1,2011-10-03T11:00:00Z,27.8903,-94.0367,1020.8,11111222 
TABS,ioos:station:wmo:42046:1,2011-10-03T11:30:00Z,27.8903,-94.0367,1021.09,11111222 
TABS,ioos:station:wmo:42046:1,2011-10-03T12:00:00Z,27.8903,-94.0367,1021.46,11111222 
TABS,ioos:station:wmo:42046:1,2011-10-03T12:30:00Z,27.8903,-94.0367,1021.86,11111222 
TABS,ioos:station:wmo:42046:1,2011-10-03T13:00:00Z,27.8903,-94.0367,1021.88,11111222 
TABS,ioos:station:wmo:42046:1,2011-10-03T13:30:00Z,27.8903,-94.0367,1022.24,11111222 
TABS,ioos:station:wmo:42046:1,2011-10-03T14:00:00Z,27.8903,-94.0367,1022.46,11111222 
TABS,ioos:station:wmo:42046:1,2011-10-03T14:30:00Z,27.8903,-94.0367,1022.67,11111222 
TABS,ioos:station:wmo:42046:1,2011-10-03T15:00:00Z,27.8903,-94.0367,1022.67,11111222 
TABS,ioos:station:wmo:42046:1,2011-10-03T15:30:00Z,27.8903,-94.0367,1022.83,11111222 
TABS,ioos:station:wmo:42046:1,2011-10-03T16:00:00Z,27.8903,-94.0367,1022.78,11111222 
TABS,ioos:station:wmo:42046:1,2011-10-03T16:30:00Z,27.8903,-94.0367,1022.87,11111222 
TABS,ioos:station:wmo:42046:1,2011-10-03T17:00:00Z,27.8903,-94.0367,1022.7,11111222 
TABS,ioos:station:wmo:42046:1,2011-10-03T17:30:00Z,27.8903,-94.0367,1022.54,11111222 
TABS,ioos:station:wmo:42046:1,2011-10-03T18:00:00Z,27.8903,-94.0367,1021.97,11111222 
TABS,ioos:station:wmo:42046:1,2011-10-03T18:30:00Z,27.8903,-94.0367,1021.83,11111222 
TABS,ioos:station:wmo:42046:1,2011-10-03T19:00:00Z,27.8903,-94.0367,1021.55,11111222 
TABS,ioos:station:wmo:42046:1,2011-10-03T19:30:00Z,27.8903,-94.0367,1021.47,11111222 
TABS,ioos:station:wmo:42046:1,2011-10-03T20:00:00Z,27.8903,-94.0367,1021.24,11111222 
TABS,ioos:station:wmo:42046:1,2011-10-03T20:30:00Z,27.8903,-94.0367,1021.06,11111222 
TABS,ioos:station:wmo:42046:1,2011-10-03T21:00:00Z,27.8903,-94.0367,1020.95,11111222 
TABS,ioos:station:wmo:42046:1,2011-10-03T21:30:00Z,27.8903,-94.0367,1020.93,11111222 
TABS,ioos:station:wmo:42046:1,2011-10-03T22:00:00Z,27.8903,-94.0367,1020.87,11111222 
TABS,ioos:station:wmo:42046:1,2011-10-03T22:30:00Z,27.8903,-94.0367,1020.82,11111222 
TABS,ioos:station:wmo:42046:1,2011-10-03T23:00:00Z,27.8903,-94.0367,1020.87,11111222 
TABS,ioos:station:wmo:42046:1,2011-10-03T23:30:00Z,27.8903,-94.0367,1020.82,11111222 
TABS,ioos:station:wmo:42046:1,2011-10-04T00:00:00Z,27.8903,-94.0367,1020.77,11111222 
TABS,ioos:station:wmo:42046:1,2011-10-04T00:30:00Z,27.8903,-94.0367,1020.85,11111222 
TABS,ioos:station:wmo:42046:1,2011-10-04T01:00:00Z,27.8903,-94.0367,1021.11,11111222 
TABS,ioos:station:wmo:42046:1,2011-10-04T01:30:00Z,27.8903,-94.0367,1021.34,11111222 
TABS,ioos:station:wmo:42046:1,2011-10-04T02:00:00Z,27.8903,-94.0367,1021.46,11111222 
TABS,ioos:station:wmo:42046:1,2011-10-04T02:30:00Z,27.8903,-94.0367,1021.49,11111222 
TABS,ioos:station:wmo:42046:1,2011-10-04T03:00:00Z,27.8903,-94.0367,1021.64,11111222 
TABS,ioos:station:wmo:42046:1,2011-10-04T03:30:00Z,27.8903,-94.0367,1021.68,11111222 
TABS,ioos:station:wmo:42046:1,2011-10-04T04:00:00Z,27.8903,-94.0367,1021.68,11111222 
TABS,ioos:station:wmo:42046:1,2011-10-04T04:30:00Z,27.8903,-94.0367,1021.5,11111222 
TABS,ioos:station:wmo:42046:1,2011-10-04T05:00:00Z,27.8903,-94.0367,1021.3,11111222 
TABS,ioos:station:wmo:42046:1,2011-10-04T05:30:00Z,27.8903,-94.0367,1021.25,11111222 
TABS,ioos:station:wmo:42046:1,2011-10-04T06:00:00Z,27.8903,-94.0367,1021.11,11111222 
TABS,ioos:station:wmo:42046:1,2011-10-04T06:30:00Z,27.8903,-94.0367,1021.01,11111222 
TABS,ioos:station:wmo:42046:1,2011-10-04T07:00:00Z,27.8903,-94.0367,1020.86,11111222 
TABS,ioos:station:wmo:42046:1,2011-10-04T07:30:00Z,27.8903,-94.0367,1020.83,11111222 
TABS,ioos:station:wmo:42046:1,2011-10-04T08:00:00Z,27.8903,-94.0367,1020.71,11111222 
TABS,ioos:station:wmo:42046:1,2011-10-04T08:30:00Z,27.8903,-94.0367,1020.56,11111222 
TABS,ioos:station:wmo:42046:1,2011-10-04T09:00:00Z,27.8903,-94.0367,1020.39,11111222 
TABS,ioos:station:wmo:42046:1,2011-10-04T09:30:00Z,27.8903,-94.0367,1020.41,11111222 
TABS,ioos:station:wmo:42046:1,2011-10-04T10:00:00Z,27.8903,-94.0367,1020.64,11111222 
TABS,ioos:station:wmo:42046:1,2011-10-04T10:30:00Z,27.8903,-94.0367,1020.83,11111222 
TABS,ioos:station:wmo:42046:1,2011-10-04T11:00:00Z,27.8903,-94.0367,1021.06,11111222 
TABS,ioos:station:wmo:42046:1,2011-10-04T11:30:00Z,27.8903,-94.0367,1021.18,11111222 
TABS,ioos:station:wmo:42046:1,2011-10-04T12:00:00Z,27.8903,-94.0367,1021.48,11111222 
TABS,ioos:station:wmo:42046:1,2011-10-04T12:30:00Z,27.8903,-94.0367,1021.57,11111222 
TABS,ioos:station:wmo:42046:1,2011-10-04T13:00:00Z,27.8903,-94.0367,1021.77,11111222 
TABS,ioos:station:wmo:42046:1,2011-10-04T13:30:00Z,27.8903,-94.0367,1022.05,11111222 
TABS,ioos:station:wmo:42046:1,2011-10-04T14:00:00Z,27.8903,-94.0367,1022.29,11111222 
TABS,ioos:station:wmo:42046:1,2011-10-04T14:30:00Z,27.8903,-94.0367,1022.44,11111222 
TABS,ioos:station:wmo:42046:1,2011-10-04T15:00:00Z,27.8903,-94.0367,1022.6,11111222 
TABS,ioos:station:wmo:42046:1,2011-10-04T15:30:00Z,27.8903,-94.0367,1022.59,11111222 
TABS,ioos:station:wmo:42046:1,2011-10-04T16:00:00Z,27.8903,-94.0367,1022.61,11111222 
TABS,ioos:station:wmo:42046:1,2011-10-04T16:30:00Z,27.8903,-94.0367,1022.6,11111222 
TABS,ioos:station:wmo:42046:1,2011-10-04T17:00:00Z,27.8903,-94.0367,1022.44,11111222 
TABS,ioos:station:wmo:42046:1,2011-10-04T17:30:00Z,27.8903,-94.0367,1022.28,11111222 
TABS,ioos:station:wmo:42046:1,2011-10-04T18:00:00Z,27.8903,-94.0367,1021.94,11111222 
TABS,ioos:station:wmo:42046:1,2011-10-04T18:30:00Z,27.8903,-94.0367,1021.37,11111222 
TABS,ioos:station:wmo:42046:1,2011-10-04T19:00:00Z,27.8903,-94.0367,1020.99,11111222 
TABS,ioos:station:wmo:42046:1,2011-10-04T19:30:00Z,27.8903,-94.0367,1020.8,11111222 
TABS,ioos:station:wmo:42046:1,2011-10-04T20:00:00Z,27.8903,-94.0367,1020.45,11111222 
TABS,ioos:station:wmo:42046:1,2011-10-04T20:30:00Z,27.8903,-94.0367,1020.14,11111222 
TABS,ioos:station:wmo:42046:1,2011-10-04T21:00:00Z,27.8903,-94.0367,1019.95,11111222 
TABS,ioos:station:wmo:42046:1,2011-10-04T21:30:00Z,27.8903,-94.0367,1019.63,11111222 
TABS,ioos:station:wmo:42046:1,2011-10-04T22:00:00Z,27.8903,-94.0367,1019.61,11111222 
TABS,ioos:station:wmo:42046:1,2011-10-04T22:30:00Z,27.8903,-94.0367,1019.57,11111222 
TABS,ioos:station:wmo:42046:1,2011-10-04T23:00:00Z,27.8903,-94.0367,1019.58,11111222 
TABS,ioos:station:wmo:42046:1,2011-10-04T23:30:00Z,27.8903,-94.0367,1019.52,11111222 
TABS,ioos:station:wmo:42046:1,2011-10-05T00:00:00Z,27.8903,-94.0367,1019.69,11111222 
TABS,ioos:station:wmo:42046:1,2011-10-05T00:30:00Z,27.8903,-94.0367,1019.71,11111222 
TABS,ioos:station:wmo:42046:1,2011-10-05T01:00:00Z,27.8903,-94.0367,1019.86,11111222 
TABS,ioos:station:wmo:42046:1,2011-10-05T01:30:00Z,27.8903,-94.0367,1020.1,11111222 
TABS,ioos:station:wmo:42046:1,2011-10-05T02:00:00Z,27.8903,-94.0367,1020.29,11111222 
TABS,ioos:station:wmo:42046:1,2011-10-05T02:30:00Z,27.8903,-94.0367,1020.22,11111222 
TABS,ioos:station:wmo:42046:1,2011-10-05T03:00:00Z,27.8903,-94.0367,1020.37,11111222 
TABS,ioos:station:wmo:42046:1,2011-10-05T03:30:00Z,27.8903,-94.0367,1020.3,11111222 
TABS,ioos:station:wmo:42046:1,2011-10-05T04:00:00Z,27.8903,-94.0367,1020.19,11111222 
TABS,ioos:station:wmo:42046:1,2011-10-05T04:30:00Z,27.8903,-94.0367,1020.25,11111222 
TABS,ioos:station:wmo:42046:1,2011-10-05T05:00:00Z,27.8903,-94.0367,1020.03,11111222 
TABS,ioos:station:wmo:42046:1,2011-10-05T05:30:00Z,27.8903,-94.0367,1019.79,11111222 
TABS,ioos:station:wmo:42046:1,2011-10-05T06:00:00Z,27.8903,-94.0367,1019.56,11111222 
TABS,ioos:station:wmo:42046:1,2011-10-05T06:30:00Z,27.8903,-94.0367,1019.56,11111222 
TABS,ioos:station:wmo:42046:1,2011-10-05T07:00:00Z,27.8903,-94.0367,1019.45,11111222 
TABS,ioos:station:wmo:42046:1,2011-10-05T07:30:00Z,27.8903,-94.0367,1019.09,11111222 
TABS,ioos:station:wmo:42046:1,2011-10-05T08:00:00Z,27.8903,-94.0367,1019.0,11111222 
TABS,ioos:station:wmo:42046:1,2011-10-05T08:30:00Z,27.8903,-94.0367,1018.78,11111222 
TABS,ioos:station:wmo:42046:1,2011-10-05T09:00:00Z,27.8903,-94.0367,1018.5,11111222 
TABS,ioos:station:wmo:42046:1,2011-10-05T09:30:00Z,27.8903,-94.0367,1018.42,11111222 
TABS,ioos:station:wmo:42046:1,2011-10-05T10:00:00Z,27.8903,-94.0367,1018.51,11111222 
TABS,ioos:station:wmo:42046:1,2011-10-05T10:30:00Z,27.8903,-94.0367,1018.4,11111222 
TABS,ioos:station:wmo:42046:1,2011-10-05T11:00:00Z,27.8903,-94.0367,1018.42,11111222 
TABS,ioos:station:wmo:42046:1,2011-10-05T11:30:00Z,27.8903,-94.0367,1018.51,11111222 
TABS,ioos:station:wmo:42046:1,2011-10-05T12:00:00Z,27.8903,-94.0367,1019.02,11111222 
TABS,ioos:station:wmo:42046:1,2011-10-05T12:30:00Z,27.8903,-94.0367,1019.11,11111222 
TABS,ioos:station:wmo:42046:1,2011-10-05T13:00:00Z,27.8903,-94.0367,1019.32,11111222 
TABS,ioos:station:wmo:42046:1,2011-10-05T13:30:00Z,27.8903,-94.0367,1019.52,11111222 
TABS,ioos:station:wmo:42046:1,2011-10-05T14:00:00Z,27.8903,-94.0367,1019.74,11111222 
TABS,ioos:station:wmo:42046:1,2011-10-05T14:30:00Z,27.8903,-94.0367,1020.06,11111222 
TABS,ioos:station:wmo:42046:1,2011-10-05T15:00:00Z,27.8903,-94.0367,1020.11,11111222 
TABS,ioos:station:wmo:42046:1,2011-10-05T15:30:00Z,27.8903,-94.0367,1020.03,11111222 
TABS,ioos:station:wmo:42046:1,2011-10-05T16:00:00Z,27.8903,-94.0367,1020.0,11111222 
TABS,ioos:station:wmo:42046:1,2011-10-05T16:30:00Z,27.8903,-94.0367,1019.5,11111222 
TABS,ioos:station:wmo:42046:1,2011-10-05T17:00:00Z,27.8903,-94.0367,1019.39,11111222 
TABS,ioos:station:wmo:42046:1,2011-10-05T17:30:00Z,27.8903,-94.0367,1019.04,11111222 
TABS,ioos:station:wmo:42046:1,2011-10-05T18:00:00Z,27.8903,-94.0367,1018.62,11111222 
TABS,ioos:station:wmo:42046:1,2011-10-05T18:30:00Z,27.8903,-94.0367,1018.27,11111222 
TABS,ioos:station:wmo:42046:1,2011-10-05T19:00:00Z,27.8903,-94.0367,1017.93,11111222 
TABS,ioos:station:wmo:42046:1,2011-10-05T19:30:00Z,27.8903,-94.0367,1017.67,11111222 
TABS,ioos:station:wmo:42046:1,2011-10-05T20:00:00Z,27.8903,-94.0367,1017.36,11111222 
TABS,ioos:station:wmo:42046:1,2011-10-05T20:30:00Z,27.8903,-94.0367,1017.22,11111222 
TABS,ioos:station:wmo:42046:1,2011-10-05T21:00:00Z,27.8903,-94.0367,1016.84,11111222 
TABS,ioos:station:wmo:42046:1,2011-10-05T21:30:00Z,27.8903,-94.0367,1016.9,11111222 
TABS,ioos:station:wmo:42046:1,2011-10-05T22:00:00Z,27.8903,-94.0367,1016.72,11111222 
TABS,ioos:station:wmo:42046:1,2011-10-05T22:30:00Z,27.8903,-94.0367,1016.46,11111222 
TABS,ioos:station:wmo:42046:1,2011-10-05T23:00:00Z,27.8903,-94.0367,1016.48,11111222 
TABS,ioos:station:wmo:42046:1,2011-10-05T23:30:00Z,27.8903,-94.0367,1016.32,11111222 
TABS,ioos:station:wmo:42046:1,2011-10-06T00:00:00Z,27.8903,-94.0367,1016.25,11111222 
TABS,ioos:station:wmo:42046:1,2011-10-06T00:30:00Z,27.8903,-94.0367,1015.97,11111222 
TABS,ioos:station:wmo:42046:1,2011-10-06T01:00:00Z,27.8903,-94.0367,1016.46,11111222 
TABS,ioos:station:wmo:42046:1,2011-10-06T01:30:00Z,27.8903,-94.0367,1016.59,11111222 
TABS,ioos:station:wmo:42046:1,2011-10-06T02:00:00Z,27.8903,-94.0367,1016.82,11111222 
TABS,ioos:station:wmo:42046:1,2011-10-06T02:30:00Z,27.8903,-94.0367,1016.98,11111222 
TABS,ioos:station:wmo:42046:1,2011-10-06T03:00:00Z,27.8903,-94.0367,1017.0,11111222 
TABS,ioos:station:wmo:42046:1,2011-10-06T03:30:00Z,27.8903,-94.0367,1016.9,11111222 
TABS,ioos:station:wmo:42046:1,2011-10-06T04:00:00Z,27.8903,-94.0367,1016.86,11111222 
TABS,ioos:station:wmo:42046:1,2011-10-06T04:30:00Z,27.8903,-94.0367,1016.43,11111222 
TABS,ioos:station:wmo:42046:1,2011-10-06T05:00:00Z,27.8903,-94.0367,1016.41,11111222 
TABS,ioos:station:wmo:42046:1,2011-10-06T05:30:00Z,27.8903,-94.0367,1015.88,11111222 
TABS,ioos:station:wmo:42046:1,2011-10-06T06:00:00Z,27.8903,-94.0367,1015.88,11111222 
TABS,ioos:station:wmo:42046:1,2011-10-06T06:30:00Z,27.8903,-94.0367,1015.56,11111222 
TABS,ioos:station:wmo:42046:1,2011-10-06T07:00:00Z,27.8903,-94.0367,1015.31,11111222 
TABS,ioos:station:wmo:42046:1,2011-10-06T07:30:00Z,27.8903,-94.0367,1014.91,11111222 
TABS,ioos:station:wmo:42046:1,2011-10-06T08:00:00Z,27.8903,-94.0367,1015.17,11111222 
TABS,ioos:station:wmo:42046:1,2011-10-06T08:30:00Z,27.8903,-94.0367,1014.85,11111222 
TABS,ioos:station:wmo:42046:1,2011-10-06T09:00:00Z,27.8903,-94.0367,1014.58,11111222 
TABS,ioos:station:wmo:42046:1,2011-10-06T09:30:00Z,27.8903,-94.0367,1014.63,11111222 
TABS,ioos:station:wmo:42046:1,2011-10-06T10:00:00Z,27.8903,-94.0367,1014.77,11111222 
TABS,ioos:station:wmo:42046:1,2011-10-06T10:30:00Z,27.8903,-94.0367,1014.94,11111222 
TABS,ioos:station:wmo:42046:1,2011-10-06T11:00:00Z,27.8903,-94.0367,1015.05,11111222 
TABS,ioos:station:wmo:42046:1,2011-10-06T11:30:00Z,27.8903,-94.0367,1015.38,11111222 
TABS,ioos:station:wmo:42046:1,2011-10-06T12:00:00Z,27.8903,-94.0367,1015.31,11111222 
TABS,ioos:station:wmo:42046:1,2011-10-06T12:30:00Z,27.8903,-94.0367,1015.5,11111222 
TABS,ioos:station:wmo:42046:1,2011-10-06T13:00:00Z,27.8903,-94.0367,1015.75,11111222 
TABS,ioos:station:wmo:42046:1,2011-10-06T13:30:00Z,27.8903,-94.0367,1015.89,11111222 
TABS,ioos:station:wmo:42046:1,2011-10-06T14:00:00Z,27.8903,-94.0367,1016.14,11111222 
TABS,ioos:station:wmo:42046:1,2011-10-06T14:30:00Z,27.8903,-94.0367,1016.56,11111222 
TABS,ioos:station:wmo:42046:1,2011-10-06T15:00:00Z,27.8903,-94.0367,1017.28,11111222 
TABS,ioos:station:wmo:42046:1,2011-10-06T15:30:00Z,27.8903,-94.0367,1016.78,11111222 
TABS,ioos:station:wmo:42046:1,2011-10-06T16:00:00Z,27.8903,-94.0367,1017.11,11111222 
TABS,ioos:station:wmo:42046:1,2011-10-06T16:30:00Z,27.8903,-94.0367,1016.89,11111222 
TABS,ioos:station:wmo:42046:1,2011-10-06T17:00:00Z,27.8903,-94.0367,1017.1,11111222 
TABS,ioos:station:wmo:42046:1,2011-10-06T17:30:00Z,27.8903,-94.0367,1016.63,11111222 
TABS,ioos:station:wmo:42046:1,2011-10-06T18:00:00Z,27.8903,-94.0367,1015.85,11111222 
TABS,ioos:station:wmo:42046:1,2011-10-06T18:30:00Z,27.8903,-94.0367,1015.76,11111222 